SCP
0 0 0 0 0 0 0 0 0 -0 0 0 -0 0 0 0 0 0 0 0 0 0 0 0 0 0 0 0 0 0 0 0 0 0 -0 -0 0 0 -0 -0 -0 -0 -0
0 0 0 0 0 0 0 0 0 0 0 -0 -0 0 -0 0 0 0 0 0 0 -0 0 0 0 0 0 0 0 0 0 0 0 0 -0 -0 0 0 -0 -0 -0 -0 -0
0 0 0 0 -0 0 -0 0 0 0 0 -0 -0 -0 -0 -0 0 0 0 0 0 -0 -0 0 0 0 0 0 0 -0 -0 -0 -0 0 0 -0 0 0 0 0 0 0 -0
-0 0 0 0 0 -0 0 0 -0 -0 -0 0 -0 0 -0 0 0 0 0 0 0 0 0 0 0 0 0 0 0 0 0 -0 -0 -0 -0 -0 0 0 0 0 0 -0 0
-0 -0 -0 0 0 0 0 0 -0 -0 0 -0 0 0 0 0 0 0 -0 0 0 0 0 0 0 0 0 0 0 0 0 -0 0 -0 -0 -0 0 0 -0 -0 -0 -0 -0
-0 -0 0 -0 -0 0 -0 -0 -0 0 -0 -0 0 0 0 0 0 0 -0 0 0 0 0 0 0 0 0 0 0 0 -0 -0 -0 -0 0 -0 -0 -0 0 -0 -0 -0 -0
-0 -0 -0 -0 -0 0 0 0 0 0 -0 -0 0 0 0 0 0 -0 0 0 0 0 0 -0 0 0 0 0 0 0 0 -0 0 0 -0 0 0 0 0 0 -0 -0 0
0 0 -0 0 -0 0 0 0 -0 -0 0 -0 0 0 0 0 0 0 0 0 0 -0 0 0 0 0 0 0 0 0 0 0 0 0 -0 -0 0 0 0 -0 0 -0 -0
-0 0 -0 0 -0 0 0 0 0 0 0 0 0 0 0 0 0 0 0 0 -0 0 0 0 0 0 0 0 0 0 0 0 0 0 0 -0 0 0 0 0 -0 -0 0
-0 -0 0 0 0 0 0 0 -0 0 -0 0 0 0 0 0 0 0 0 -0 0 0 0 0 0 0 -0 0 0 0 0 0 0 0 0 0 0 0 0 0 0 -0 0
0 -0 -0 0 -0 -0 0 0 0 -0 0 -0 0 0 0 0 0 0 0 0 0 0 0 0 -0 0 0 0 0 0 0 0 0 0 0 0 0 0 0 0 0 0 0
-0 0 -0 0 0 0 0 0 -0 -0 0 0 0 0 0 0 0 0 0 -0 0 0 0 0 0 0 0 0 0 0 0 0 0 0 0 0 0 0 0 0 0 0 0
0 -0 -0 0 0 0 0 -0 -0 0 0 0 0 0 0 0 0 0 0 -0 0 -0 0 0 0 0 -0 0 0 0 0 0 0 0 0 0 0 0 0 0 0 0 0
0 -0 -0 -0 0 0 0 0 0 0 0 0 -0 -0 0 0 0 0 0 0 0 0 0 0 0 0 0 0 0 -0 0 0 0 0 0 0 0 0 0 0 0 0 -0
0 0 -0 -0 0 -0 0 0 -0 -0 0 0 -0 -0 0 0 0 0 0 0 0 0 0 0 -0 0 0 0 -0 0 0 0 0 0 0 0 0 0 0 -0 -0 -0 -0
0 0 0 0 0 0 0 0 0 0 0 0 0 -0 0 -0 0 0 0 0 0 0 0 -0 -0 0 0 -0 -0 -0 0 0 0 0 0 0 0 0 0 0 -0 -0 -0
0 -0 0 0 0 0 0 0 0 0 0 0 0 0 0 0 0 0 0 0 0 0 0 0 0 0 -0 -0 0 0 0 0 0 -0 -0 -0 -0 0 0 0 -0 0 -0
0 0 0 0 0 0 0 0 -0 0 0 0 0 -0 0 0 0 0 0 0 0 0 0 0 0 0 0 -0 -0 0 0 0 0 -0 -0 -0 -0 -0 -0 -0 -0 -0 -0
0 0 0 0 0 0 0 0 0 0 0 0 0 0 0 0 0 0 0 0 0 0 0 0 0 0 0 0 0 0 0 0 -0 -0 0 0 -0 -0 -0 -0 -0 -0 -0
0 0 0 0 0 0 0 0 0 0 0 0 0 0 0 0 0 0 0 0 0 0 0 0 0 0 0 0 0 0 0 0 0 0 0 0 0 -0 -0 -0 -0 -0 -0
0 0 0 0 0 0 0 0 0 0 0 0 0 0 0 0 0 0 0 0 0 0 0 0 0 0 0 0 0 0 0 0 0 0 0 -0 0 0 0 0 0 0 0
0 0 0 0 0 0 0 0 0 0 0 0 0 0 0 0 0 0 0 0 0 0 0 0 0 0 0 0 0 0 0 0 0 0 0 0 0 0 0 0 0 0 0
0 0 0 0 0 0 0 0 0 0 0 0 0 0 0 0 0 0 0 0 0 0 0 0 0 0 0 0 0 0 0 0 0 0 0 0 0 0 0 0 0 0 0
0 0 0 0 0 0 0 0 0 0 0 0 0 0 0 0 0 0 0 0 0 0 0 0 0 0 0 0 0 0 0 0 0 0 0 0 0 0 0 0 0 0 -0
0 0 0 0 0 0 0 0 0 0 0 0 0 0 0 0 0 0 0 0 0 0 0 0 0 0 0 0 0 0 0 0 0 0 0 0 0 0 0 0 0 0 -0
0 0 0 0 0 0 0 0 0 0 0 0 0 0 0 0 0 0 0 0 0 0 0 0 0 0 0 0 0 0 0 0 0 0 0 0 0 0 0 0 0 0 0
Wind_Speed_500mb
14 26 25 14 9 9 14 9 15 6 2 14 10 15 16 6 7 7 10 15 18 18 21 27 32 30 31 31 21 13 10 11 13 10 5 15 35 36 40 42 41 41 40
16 15 16 24 18 14 20 12 14 9 5 5 2 6 2 3 11 5 11 10 15 19 28 30 38 41 38 36 23 16 11 9 8 9 6 6 24 30 36 40 41 40 39
5 11 13 40 18 13 19 23 10 12 12 16 14 9 2 10 11 7 13 15 17 22 28 31 35 44 45 38 28 22 16 14 11 8 5 5 13 24 29 36 38 39 40
13 24 31 31 18 12 19 23 8 4 18 8 10 12 39 8 12 11 18 14 18 18 24 27 29 38 47 41 31 22 20 19 16 11 5 7 12 19 25 31 35 37 39
4 18 9 2 8 9 15 9 10 8 10 22 15 13 7 7 11 18 22 22 20 13 22 22 23 29 42 42 31 26 24 23 20 12 7 9 13 18 23 28 33 35 36
16 22 8 11 8 20 26 13 6 13 13 27 34 26 15 5 13 18 21 22 19 7 18 23 19 27 35 39 32 29 27 26 21 19 15 12 13 17 21 25 30 33 34
7 18 15 22 23 26 16 5 8 11 23 31 24 18 15 4 17 12 14 17 16 15 16 19 13 22 24 37 35 31 28 24 20 24 25 24 19 19 22 25 26 30 34
9 12 13 23 31 12 14 8 8 17 13 19 17 14 11 11 15 13 11 9 7 9 12 12 8 20 26 31 34 34 30 25 23 24 25 26 27 24 23 27 29 33 38
10 10 15 20 44 13 16 13 7 9 18 14 13 13 8 8 12 20 13 8 15 9 10 9 12 10 19 20 30 34 33 28 24 22 23 23 26 30 33 32 34 37 38
18 10 10 9 12 8 12 12 5 3 9 9 11 10 8 11 10 10 14 6 10 5 2 4 16 3 5 15 22 29 31 30 25 22 21 22 22 22 24 27 29 32 32
22 21 11 10 6 9 7 2 1 2 5 5 9 11 14 16 15 23 21 30 14 19 11 12 23 28 15 10 16 23 24 26 26 23 22 21 21 20 17 18 22 23 22
10 26 21 19 16 12 4 3 4 4 4 3 5 12 19 18 17 22 19 14 26 22 16 9 4 11 5 7 11 17 17 18 22 25 23 22 20 18 18 18 19 22 24
14 11 17 6 1 8 11 8 4 3 3 5 9 9 14 23 22 16 16 17 30 16 11 22 10 18 15 11 12 14 13 14 15 18 23 24 22 18 15 14 16 17 18
21 19 24 10 3 3 6 10 4 1 8 9 9 8 13 12 28 22 12 18 28 14 9 18 16 19 23 18 14 12 11 13 12 12 13 17 15 15 16 15 12 12 14
18 16 20 10 10 5 10 11 6 9 7 7 10 8 14 13 5 13 23 13 11 10 15 13 27 13 9 15 17 9 9 13 8 6 7 7 9 7 8 11 12 12 11
25 13 27 18 16 12 13 11 14 15 7 12 9 10 15 16 10 9 7 17 14 11 14 10 12 7 8 12 13 7 1 9 8 7 2 2 4 5 4 5 6 6 7
19 14 17 19 16 14 13 17 21 21 18 10 5 5 8 14 19 10 6 10 5 8 7 7 4 7 12 11 4 15 8 16 12 11 11 7 2 3 4 5 6 5 7
21 25 22 26 25 29 23 20 23 14 20 18 11 11 11 12 15 12 13 7 9 9 9 13 6 11 9 14 9 10 14 15 11 16 18 12 2 4 5 5 6 8 10
24 21 23 22 20 23 23 24 22 10 11 17 16 15 17 11 9 11 17 14 9 2 0 6 9 13 6 15 19 16 17 14 13 14 13 11 7 6 6 7 5 2 4
28 23 23 18 19 18 21 22 23 21 17 12 15 10 10 17 18 18 17 18 10 3 6 8 3 3 13 16 17 17 21 11 15 9 6 11 9 10 11 11 10 10 9
29 31 31 23 19 21 19 17 18 21 19 19 19 17 21 14 19 20 20 20 23 22 12 9 11 2 14 19 17 15 21 20 23 16 14 10 11 7 8 8 9 11 13
17 14 15 20 20 19 17 14 13 16 18 16 19 17 24 29 22 23 22 20 16 20 22 20 14 10 9 13 9 8 16 36 31 24 28 19 15 7 2 5 7 8 8
21 17 13 15 16 17 14 16 12 12 15 19 19 16 17 27 31 25 18 19 10 15 20 21 18 15 15 16 17 16 15 15 21 24 40 30 19 11 3 5 8 10 11
29 31 26 25 25 23 22 18 14 10 15 19 16 13 14 21 23 28 34 26 19 14 11 13 17 18 19 19 18 18 19 23 25 37 42 35 26 16 8 3 7 11 16
23 24 23 23 25 33 39 37 30 25 20 16 12 8 10 16 16 21 26 27 20 20 19 22 24 21 21 24 23 16 19 25 26 26 45 32 28 15 9 5 5 8 11
15 11 14 18 19 18 24 23 23 21 16 14 13 18 21 26 24 27 27 29 22 20 23 26 23 22 23 24 23 21 20 23 26 25 22 21 21 13 12 11 12 8 8
Wind_Direction_500mb
190 211 210 152 164 176 128 166 139 214 345 71 43 131 143 209 288 1 357 25 42 44 40 32 28 22 14 13 14 9 20 344 344 12 359 206 198 206 206 206 203 202 203
194 236 202 178 168 178 150 237 189 177 237 177 95 197 357 235 274 258 5 20 39 39 45 39 33 27 21 17 19 27 37 24 360 20 43 142 185 202 200 201 201 200 201
171 202 168 155 147 172 160 173 175 140 257 222 228 234 274 141 352 264 354 20 28 33 35 29 26 23 22 23 25 31 33 38 35 27 48 121 179 194 195 197 197 196 197
152 188 168 183 179 172 176 161 169 301 294 187 267 314 325 10 66 45 12 10 24 31 26 20 24 21 22 25 24 31 42 48 42 39 85 122 153 177 185 188 190 192 193
126 146 127 113 199 186 189 208 261 354 306 330 346 309 15 22 77 41 36 22 23 28 20 23 29 23 21 25 30 38 45 49 47 51 86 131 137 152 168 177 182 185 186
155 171 155 147 120 193 172 106 24 14 48 27 18 23 22 332 27 39 52 34 45 35 20 7 38 37 25 28 31 45 49 50 48 56 69 99 126 139 150 163 170 177 180
132 128 167 153 147 144 165 335 69 4 36 29 16 52 119 99 53 50 50 39 7 16 18 14 45 53 35 37 35 43 53 60 60 65 67 83 104 127 142 149 156 165 170
133 135 83 167 151 118 137 64 42 56 68 30 34 25 47 86 82 73 71 56 2 114 50 360 28 62 51 46 43 43 53 64 69 71 73 78 91 105 127 140 142 148 152
184 124 116 111 179 156 116 81 51 48 74 40 21 9 78 102 102 30 63 358 30 39 32 41 342 20 48 58 56 44 50 62 70 77 85 86 90 96 108 119 131 140 149
170 172 137 124 125 148 96 61 127 150 86 82 77 37 94 132 131 346 40 1 49 355 9 85 0 91 201 78 69 53 50 60 70 77 85 90 92 99 110 117 124 137 152
186 180 187 161 165 115 93 34 122 101 45 26 47 23 35 69 70 69 72 100 98 79 116 132 59 40 111 75 83 69 51 58 70 72 78 88 96 102 114 134 141 147 154
149 175 193 218 245 243 228 258 37 88 299 342 25 23 60 28 29 62 55 119 125 110 98 336 15 73 96 121 82 78 63 65 69 76 72 78 94 104 113 121 133 142 147
215 199 204 225 160 227 245 264 266 125 339 27 1 337 354 21 17 54 38 73 167 140 45 31 52 66 176 145 107 92 88 80 81 81 88 81 78 92 108 121 129 135 142
203 218 193 212 167 203 318 252 245 76 355 345 319 325 355 50 50 55 28 28 148 157 66 22 22 98 142 143 147 133 113 95 91 98 89 93 87 83 97 112 131 146 152
212 172 165 168 192 223 247 305 334 239 270 286 290 340 319 327 4 48 58 69 86 142 154 45 79 108 111 159 159 152 114 93 80 84 103 113 111 95 93 103 116 130 142
205 189 175 195 198 218 232 261 288 246 273 268 224 301 347 332 352 316 50 58 62 121 133 58 39 101 94 132 151 155 232 90 87 91 91 158 187 179 177 150 137 134 133
232 224 219 215 219 233 246 258 263 283 274 247 217 325 337 353 350 5 60 63 41 49 125 101 89 131 127 144 101 191 230 116 91 100 97 84 121 175 199 183 180 186 202
264 245 254 261 257 249 243 251 258 274 274 280 272 250 278 295 305 334 337 349 4 44 107 103 145 183 170 152 173 183 142 135 109 101 74 54 65 132 137 146 183 206 214
240 254 257 254 259 250 247 255 264 263 293 292 270 300 279 258 279 292 300 314 278 87 315 16 85 172 255 212 184 183 189 176 142 119 84 64 125 102 82 68 57 33 245
243 254 256 266 264 261 250 250 244 246 259 280 251 286 282 295 278 287 288 298 299 311 258 311 302 216 216 189 198 216 200 179 180 151 95 93 113 82 63 56 59 71 86
250 256 262 254 246 253 263 266 260 251 258 259 245 264 269 261 271 277 287 293 298 287 274 319 290 225 181 192 188 201 211 194 194 195 177 152 140 74 37 44 41 53 57
222 215 229 248 244 249 247 252 261 240 259 275 276 265 263 267 267 267 292 299 280 275 269 279 282 289 265 231 230 205 182 186 203 209 203 206 183 278 9 41 31 42 47
228 235 228 251 265 256 247 240 239 264 265 262 274 291 282 273 273 285 299 290 306 289 274 271 263 256 255 245 238 221 228 233 220 208 207 224 210 241 179 42 20 12 16
260 254 257 260 257 252 259 251 247 263 265 271 275 279 292 275 287 279 272 274 289 266 286 264 257 253 246 243 249 251 246 247 225 201 197 218 214 223 214 339 8 11 14
278 255 264 271 272 273 269 256 242 277 266 247 262 318 324 295 286 282 271 268 259 258 282 272 267 265 261 258 254 260 242 240 218 194 196 216 209 217 205 243 296 330 353
247 269 269 272 279 281 264 245 237 228 225 249 274 297 305 308 297 278 265 263 256 267 266 273 276 263 262 266 259 245 232 219 208 179 172 155 172 184 203 217 240 250 298
Wind_Speed_850mb
14 26 25 14 9 9 14 9 15 6 2 14 10 15 16 6 7 7 10 15 18 18 21 27 32 30 31 31 21 13 10 11 13 10 5 15 35 36 40 42 41 41 40
16 15 16 24 18 14 20 12 14 9 5 5 2 6 2 3 11 5 11 10 15 19 28 30 38 41 38 36 23 16 11 9 8 9 6 6 24 30 36 40 41 40 39
5 11 13 40 18 13 19 23 10 12 12 16 14 9 2 10 11 7 13 15 17 22 28 31 35 44 45 38 28 22 16 14 11 8 5 5 13 24 29 36 38 39 40
13 24 31 31 18 12 19 23 8 4 18 8 10 12 39 8 12 11 18 14 18 18 24 27 29 38 47 41 31 22 20 19 16 11 5 7 12 19 25 31 35 37 39
4 18 9 2 8 9 15 9 10 8 10 22 15 13 7 7 11 18 22 22 20 13 22 22 23 29 42 42 31 26 24 23 20 12 7 9 13 18 23 28 33 35 36
16 22 8 11 8 20 26 13 6 13 13 27 34 26 15 5 13 18 21 22 19 7 18 23 19 27 35 39 32 29 27 26 21 19 15 12 13 17 21 25 30 33 34
7 18 15 22 23 26 16 5 8 11 23 31 24 18 15 4 17 12 14 17 16 15 16 19 13 22 24 37 35 31 28 24 20 24 25 24 19 19 22 25 26 30 34
9 12 13 23 31 12 14 8 8 17 13 19 17 14 11 11 15 13 11 9 7 9 12 12 8 20 26 31 34 34 30 25 23 24 25 26 27 24 23 27 29 33 38
10 10 15 20 44 13 16 13 7 9 18 14 13 13 8 8 12 20 13 8 15 9 10 9 12 10 19 20 30 34 33 28 24 22 23 23 26 30 33 32 34 37 38
18 10 10 9 12 8 12 12 5 3 9 9 11 10 8 11 10 10 14 6 10 5 2 4 16 3 5 15 22 29 31 30 25 22 21 22 22 22 24 27 29 32 32
22 21 11 10 6 9 7 2 1 2 5 5 9 11 14 16 15 23 21 30 14 19 11 12 23 28 15 10 16 23 24 26 26 23 22 21 21 20 17 18 22 23 22
10 26 21 19 16 12 4 3 4 4 4 3 5 12 19 18 17 22 19 14 26 22 16 9 4 11 5 7 11 17 17 18 22 25 23 22 20 18 18 18 19 22 24
14 11 17 6 1 8 11 8 4 3 3 5 9 9 14 23 22 16 16 17 30 16 11 22 10 18 15 11 12 14 13 14 15 18 23 24 22 18 15 14 16 17 18
21 19 24 10 3 3 6 10 4 1 8 9 9 8 13 12 28 22 12 18 28 14 9 18 16 19 23 18 14 12 11 13 12 12 13 17 15 15 16 15 12 12 14
18 16 20 10 10 5 10 11 6 9 7 7 10 8 14 13 5 13 23 13 11 10 15 13 27 13 9 15 17 9 9 13 8 6 7 7 9 7 8 11 12 12 11
25 13 27 18 16 12 13 11 14 15 7 12 9 10 15 16 10 9 7 17 14 11 14 10 12 7 8 12 13 7 1 9 8 7 2 2 4 5 4 5 6 6 7
19 14 17 19 16 14 13 17 21 21 18 10 5 5 8 14 19 10 6 10 5 8 7 7 4 7 12 11 4 15 8 16 12 11 11 7 2 3 4 5 6 5 7
21 25 22 26 25 29 23 20 23 14 20 18 11 11 11 12 15 12 13 7 9 9 9 13 6 11 9 14 9 10 14 15 11 16 18 12 2 4 5 5 6 8 10
24 21 23 22 20 23 23 24 22 10 11 17 16 15 17 11 9 11 17 14 9 2 0 6 9 13 6 15 19 16 17 14 13 14 13 11 7 6 6 7 5 2 4
28 23 23 18 19 18 21 22 23 21 17 12 15 10 10 17 18 18 17 18 10 3 6 8 3 3 13 16 17 17 21 11 15 9 6 11 9 10 11 11 10 10 9
29 31 31 23 19 21 19 17 18 21 19 19 19 17 21 14 19 20 20 20 23 22 12 9 11 2 14 19 17 15 21 20 23 16 14 10 11 7 8 8 9 11 13
17 14 15 20 20 19 17 14 13 16 18 16 19 17 24 29 22 23 22 20 16 20 22 20 14 10 9 13 9 8 16 36 31 24 28 19 15 7 2 5 7 8 8
21 17 13 15 16 17 14 16 12 12 15 19 19 16 17 27 31 25 18 19 10 15 20 21 18 15 15 16 17 16 15 15 21 24 40 30 19 11 3 5 8 10 11
29 31 26 25 25 23 22 18 14 10 15 19 16 13 14 21 23 28 34 26 19 14 11 13 17 18 19 19 18 18 19 23 25 37 42 35 26 16 8 3 7 11 16
23 24 23 23 25 33 39 37 30 25 20 16 12 8 10 16 16 21 26 27 20 20 19 22 24 21 21 24 23 16 19 25 26 26 45 32 28 15 9 5 5 8 11
15 11 14 18 19 18 24 23 23 21 16 14 13 18 21 26 24 27 27 29 22 20 23 26 23 22 23 24 23 21 20 23 26 25 22 21 21 13 12 11 12 8 8
Wind_Direction_850mb
190 211 210 152 164 176 128 166 139 214 345 71 43 131 143 209 288 1 357 25 42 44 40 32 28 22 14 13 14 9 20 344 344 12 359 206 198 206 206 206 203 202 203
194 236 202 178 168 178 150 237 189 177 237 177 95 197 357 235 274 258 5 20 39 39 45 39 33 27 21 17 19 27 37 24 360 20 43 142 185 202 200 201 201 200 201
171 202 168 155 147 172 160 173 175 140 257 222 228 234 274 141 352 264 354 20 28 33 35 29 26 23 22 23 25 31 33 38 35 27 48 121 179 194 195 197 197 196 197
152 188 168 183 179 172 176 161 169 301 294 187 267 314 325 10 66 45 12 10 24 31 26 20 24 21 22 25 24 31 42 48 42 39 85 122 153 177 185 188 190 192 193
126 146 127 113 199 186 189 208 261 354 306 330 346 309 15 22 77 41 36 22 23 28 20 23 29 23 21 25 30 38 45 49 47 51 86 131 137 152 168 177 182 185 186
155 171 155 147 120 193 172 106 24 14 48 27 18 23 22 332 27 39 52 34 45 35 20 7 38 37 25 28 31 45 49 50 48 56 69 99 126 139 150 163 170 177 180
132 128 167 153 147 144 165 335 69 4 36 29 16 52 119 99 53 50 50 39 7 16 18 14 45 53 35 37 35 43 53 60 60 65 67 83 104 127 142 149 156 165 170
133 135 83 167 151 118 137 64 42 56 68 30 34 25 47 86 82 73 71 56 2 114 50 360 28 62 51 46 43 43 53 64 69 71 73 78 91 105 127 140 142 148 152
184 124 116 111 179 156 116 81 51 48 74 40 21 9 78 102 102 30 63 358 30 39 32 41 342 20 48 58 56 44 50 62 70 77 85 86 90 96 108 119 131 140 149
170 172 137 124 125 148 96 61 127 150 86 82 77 37 94 132 131 346 40 1 49 355 9 85 0 91 201 78 69 53 50 60 70 77 85 90 92 99 110 117 124 137 152
186 180 187 161 165 115 93 34 122 101 45 26 47 23 35 69 70 69 72 100 98 79 116 132 59 40 111 75 83 69 51 58 70 72 78 88 96 102 114 134 141 147 154
149 175 193 218 245 243 228 258 37 88 299 342 25 23 60 28 29 62 55 119 125 110 98 336 15 73 96 121 82 78 63 65 69 76 72 78 94 104 113 121 133 142 147
215 199 204 225 160 227 245 264 266 125 339 27 1 337 354 21 17 54 38 73 167 140 45 31 52 66 176 145 107 92 88 80 81 81 88 81 78 92 108 121 129 135 142
203 218 193 212 167 203 318 252 245 76 355 345 319 325 355 50 50 55 28 28 148 157 66 22 22 98 142 143 147 133 113 95 91 98 89 93 87 83 97 112 131 146 152
212 172 165 168 192 223 247 305 334 239 270 286 290 340 319 327 4 48 58 69 86 142 154 45 79 108 111 159 159 152 114 93 80 84 103 113 111 95 93 103 116 130 142
205 189 175 195 198 218 232 261 288 246 273 268 224 301 347 332 352 316 50 58 62 121 133 58 39 101 94 132 151 155 232 90 87 91 91 158 187 179 177 150 137 134 133
232 224 219 215 219 233 246 258 263 283 274 247 217 325 337 353 350 5 60 63 41 49 125 101 89 131 127 144 101 191 230 116 91 100 97 84 121 175 199 183 180 186 202
264 245 254 261 257 249 243 251 258 274 274 280 272 250 278 295 305 334 337 349 4 44 107 103 145 183 170 152 173 183 142 135 109 101 74 54 65 132 137 146 183 206 214
240 254 257 254 259 250 247 255 264 263 293 292 270 300 279 258 279 292 300 314 278 87 315 16 85 172 255 212 184 183 189 176 142 119 84 64 125 102 82 68 57 33 245
243 254 256 266 264 261 250 250 244 246 259 280 251 286 282 295 278 287 288 298 299 311 258 311 302 216 216 189 198 216 200 179 180 151 95 93 113 82 63 56 59 71 86
250 256 262 254 246 253 263 266 260 251 258 259 245 264 269 261 271 277 287 293 298 287 274 319 290 225 181 192 188 201 211 194 194 195 177 152 140 74 37 44 41 53 57
222 215 229 248 244 249 247 252 261 240 259 275 276 265 263 267 267 267 292 299 280 275 269 279 282 289 265 231 230 205 182 186 203 209 203 206 183 278 9 41 31 42 47
228 235 228 251 265 256 247 240 239 264 265 262 274 291 282 273 273 285 299 290 306 289 274 271 263 256 255 245 238 221 228 233 220 208 207 224 210 241 179 42 20 12 16
260 254 257 260 257 252 259 251 247 263 265 271 275 279 292 275 287 279 272 274 289 266 286 264 257 253 246 243 249 251 246 247 225 201 197 218 214 223 214 339 8 11 14
278 255 264 271 272 273 269 256 242 277 266 247 262 318 324 295 286 282 271 268 259 258 282 272 267 265 261 258 254 260 242 240 218 194 196 216 209 217 205 243 296 330 353
247 269 269 272 279 281 264 245 237 228 225 249 274 297 305 308 297 278 265 263 256 267 266 273 276 263 262 266 259 245 232 219 208 179 172 155 172 184 203 217 240 250 298